SCP
3 3 4 4 3 3 4 4 4 5 5 5 4 3 3 2 2 2 2 2 2 2 2 2 2 2 2 2 2 3 3 3 3 3 3 3 3 3 3 3 3 4 4
3 4 4 5 4 4 4 4 5 5 5 5 5 3 3 3 3 3 3 2 2 2 3 3 2 2 2 2 3 3 4 4 4 4 3 3 3 4 3 3 3 4 4
3 4 5 5 5 5 5 5 5 5 5 5 5 4 4 4 4 4 3 3 3 3 3 3 3 3 3 3 3 4 5 5 5 4 4 4 5 4 3 3 3 3 4
3 4 4 5 5 4 5 6 6 5 4 5 5 5 5 5 4 4 4 4 4 4 4 4 3 4 4 4 4 4 5 6 6 5 5 5 5 5 4 3 2 2 2
3 3 4 4 3 3 4 5 6 5 4 4 5 5 5 5 5 4 4 4 4 4 4 4 4 4 5 5 4 4 4 5 5 5 5 5 6 5 4 3 2 2 2
3 3 3 3 3 3 4 4 5 6 6 6 6 6 6 7 6 5 5 5 4 4 4 4 4 4 4 4 4 4 4 4 4 4 4 5 6 5 4 3 2 2 2
3 2 2 3 3 3 4 4 6 7 8 8 8 8 9 9 8 7 7 6 4 4 4 4 4 4 4 4 4 3 3 3 3 3 4 5 5 4 3 2 2 2 2
3 2 2 2 3 3 4 5 6 7 8 9 10 10 9 9 8 8 8 7 5 4 4 4 4 4 4 4 4 4 4 4 4 4 4 4 4 3 3 2 3 3 3
3 3 2 2 3 3 4 5 7 9 10 11 12 10 8 7 7 8 8 7 6 5 5 5 5 5 5 5 5 5 5 4 4 3 3 3 3 3 2 3 3 3 4
3 3 2 3 4 5 6 7 10 12 13 14 13 10 7 6 6 7 7 6 6 6 6 5 6 6 6 6 5 5 4 4 3 2 2 2 2 2 2 3 3 4 4
3 3 3 3 4 5 7 9 11 12 13 12 9 7 5 5 5 6 6 5 5 5 6 6 6 6 5 5 4 3 3 2 2 2 1 1 2 2 2 2 3 3 3
3 3 3 2 3 4 5 7 8 8 8 7 6 5 5 5 6 6 5 5 5 5 6 6 6 4 3 3 2 2 2 2 2 1 1 1 1 2 2 2 2 2 2
2 3 3 3 3 4 4 5 5 5 5 5 5 6 6 6 6 6 5 5 5 5 5 6 4 3 2 2 2 2 2 2 2 2 1 1 2 2 2 2 2 2 2
3 3 4 4 5 5 5 5 5 5 5 5 6 6 6 6 6 5 5 5 5 5 5 4 3 2 2 2 1 1 2 2 2 2 1 1 1 2 2 2 2 2 3
3 4 5 5 5 5 5 4 4 5 5 5 6 6 6 5 5 4 4 4 4 4 3 3 2 2 2 1 1 1 1 2 2 2 1 1 1 1 1 1 2 2 2
4 4 5 5 4 4 3 3 4 5 5 5 6 6 6 5 5 4 3 3 3 3 2 2 2 1 1 1 1 1 1 2 2 2 1 1 1 1 1 1 1 1 1
5 5 4 4 3 3 3 3 4 5 5 5 6 6 6 5 4 4 3 2 2 2 2 2 2 1 1 1 0 0 1 1 2 2 2 2 2 1 1 1 1 1 1
5 5 4 4 3 3 3 3 4 5 6 5 6 6 6 5 4 4 3 3 3 3 3 3 2 2 1 1 0 0 1 1 2 2 2 3 2 2 2 2 2 2 2
5 5 4 4 3 3 3 3 4 5 6 5 5 6 5 4 4 4 4 3 3 4 4 3 3 2 2 1 0 0 1 2 2 2 3 3 2 2 1 2 2 3 3
4 4 4 4 3 3 4 3 4 4 5 5 5 5 4 3 3 3 3 3 4 4 4 3 3 2 2 2 1 1 2 2 3 3 3 2 2 1 1 1 2 3 3
3 4 4 4 4 4 4 4 4 4 4 4 4 4 3 3 3 3 3 3 3 4 4 3 3 3 3 2 1 1 1 2 3 3 2 2 1 0 0 1 1 1 2
4 4 4 4 4 4 4 4 4 4 4 4 4 3 3 3 3 3 3 4 4 4 4 4 4 4 4 3 2 1 1 1 2 2 2 1 1 0 0 0 0 0 1
4 4 3 3 4 4 4 4 4 4 4 3 3 3 3 3 3 4 5 5 5 4 4 4 4 4 4 4 2 1 0 0 1 1 1 1 0 0 0 0 0 0 0
5 4 4 3 3 3 3 3 4 4 3 3 3 3 3 3 4 5 6 6 6 5 4 4 4 4 4 4 3 2 2 1 1 1 1 0 0 0 0 0 0 0 0
5 5 4 4 3 3 3 3 3 3 3 3 3 3 3 4 5 6 7 6 5 5 4 4 3 3 3 3 3 3 2 2 1 1 1 1 1 0 0 0 0 0 0
6 5 5 4 3 3 3 3 3 3 3 4 4 3 4 4 6 7 7 6 5 5 4 4 3 3 3 2 2 2 2 1 1 1 1 1 1 0 0 0 0 0 0
Wind_Speed
7 7 7 7 8 8 8 8 8 8 6 5 5 5 5 4 4 4 4 4 4 4 3 2 3 3 2 2 3 3 3 3 2 3 2 2 3 2 2 2 2 2 3
7 7 8 8 8 8 8 8 8 8 8 6 4 4 3 4 3 3 4 4 4 4 4 3 3 3 3 3 3 3 3 2 2 3 3 3 3 4 3 3 3 3 3
7 8 9 9 9 8 8 7 7 7 7 6 5 4 4 4 4 4 4 4 4 4 3 3 3 3 4 3 3 4 5 3 2 2 3 2 1 1 3 3 3 3 3
7 8 9 9 9 8 8 7 7 7 7 7 6 6 5 5 4 3 3 4 4 3 3 3 3 3 3 2 3 3 4 4 3 2 3 3 3 3 1 3 3 3 3
7 8 9 9 9 8 7 7 7 7 7 7 7 6 5 4 3 3 4 3 3 3 3 3 3 3 3 2 3 2 4 3 4 3 3 3 3 4 3 2 2 2 3
6 7 7 8 8 8 7 7 7 7 7 8 7 6 5 4 4 4 4 3 3 3 3 3 3 3 3 3 3 3 4 4 4 4 3 3 3 3 3 3 3 3 2
6 7 7 8 8 8 8 7 8 7 7 8 7 6 5 5 5 4 3 3 2 2 3 3 3 3 3 3 3 3 3 4 4 5 4 3 3 2 3 3 3 3 2
6 7 7 7 8 8 8 7 7 7 8 8 7 6 6 5 4 3 3 3 2 2 2 3 3 3 3 4 3 3 4 3 4 4 4 3 3 2 3 3 3 4 3
6 7 7 7 7 7 7 7 7 7 8 8 7 6 6 4 4 4 3 3 2 2 2 3 3 3 3 3 3 3 3 3 4 3 4 3 2 3 3 3 4 4 4
5 6 6 6 6 6 6 6 7 7 7 7 6 6 6 5 4 4 3 2 2 2 2 2 3 3 3 3 3 3 3 2 2 2 2 2 2 2 3 3 3 4 5
5 5 5 6 6 6 6 6 6 7 6 6 6 6 6 5 4 4 4 3 3 3 2 3 3 3 3 2 2 2 2 2 2 2 3 3 3 3 3 3 3 4 4
4 5 6 5 5 6 6 6 6 6 6 6 6 6 5 5 5 4 4 4 3 3 3 3 3 3 3 3 3 3 3 3 3 3 3 3 3 3 3 3 3 3 4
4 5 5 5 5 5 6 6 6 6 6 6 7 6 6 5 5 4 4 4 4 3 3 3 3 3 3 3 3 3 3 3 3 3 3 3 3 3 2 3 3 3 3
4 4 4 4 4 4 5 6 6 6 6 6 6 6 5 5 5 4 4 4 4 4 4 3 3 3 3 3 3 3 3 3 3 3 3 3 3 3 3 3 3 3 3
3 3 3 3 4 4 5 5 5 5 5 6 6 6 5 5 4 4 4 4 4 4 3 3 3 3 3 2 2 3 3 3 3 3 3 2 1 1 2 2 2 3 3
3 3 3 4 3 3 4 4 5 5 5 6 6 5 5 5 5 4 4 4 4 3 3 3 3 2 1 2 1 3 3 3 3 3 2 2 3 2 3 3 2 3 3
3 3 2 3 3 3 4 4 5 5 5 5 5 5 5 5 5 4 4 4 3 3 3 3 3 2 1 2 1 2 4 3 2 2 3 3 1 2 3 3 4 4 4
2 2 2 2 2 2 3 4 5 6 6 5 5 5 5 4 4 4 3 3 3 3 3 2 2 2 2 1 1 3 4 3 3 3 3 3 2 2 2 3 3 4 3
2 2 2 2 3 2 3 4 4 5 5 5 4 4 4 4 4 3 3 3 3 3 2 2 2 2 2 2 1 2 3 3 3 3 3 3 3 0 2 3 3 3 3
2 3 3 3 3 3 3 4 4 3 3 3 4 4 4 4 3 3 2 2 2 3 2 2 2 2 1 3 2 2 3 2 2 2 2 2 2 1 2 4 3 3 3
3 3 4 3 3 3 3 3 3 2 2 2 2 3 3 4 4 3 3 3 3 2 2 2 2 2 1 3 3 2 2 2 2 2 2 1 3 2 3 4 4 3 4
3 3 3 3 3 3 3 3 2 2 2 2 2 2 3 3 3 3 3 3 3 3 3 2 2 2 3 2 3 2 3 4 3 2 2 1 2 2 4 3 1 3 5
3 3 3 4 3 3 2 2 2 2 2 2 2 2 3 2 3 3 3 3 3 2 2 2 2 2 2 3 5 5 4 3 3 2 2 0 2 3 4 4 4 4 3
3 3 4 3 3 3 2 2 3 2 2 2 2 2 3 3 3 2 3 2 2 2 2 2 2 2 2 2 2 3 3 4 3 2 1 3 4 4 2 3 4 3 2
3 3 3 3 3 3 2 3 3 2 1 2 2 2 2 2 2 2 1 2 1 0 2 2 2 1 1 1 1 1 1 1 1 2 2 2 2 2 1 1 1 2 2
2 3 3 3 3 3 3 3 3 3 2 2 2 2 2 2 2 3 3 2 1 2 1 1 3 0 2 3 3 1 0 0 1 3 2 2 2 1 1 1 1 2 1
Wind_Direction
185 170 170 170 167 168 172 177 179 174 181 185 190 188 184 186 185 182 176 189 196 194 215 220 185 220 215 225 223 231 216 229 247 248 230 209 202 208 212 217 226 208 217
181 171 169 171 172 172 175 179 181 180 188 187 195 195 185 187 183 179 178 190 195 206 205 222 217 208 219 219 232 240 253 230 221 260 257 227 191 190 204 204 210 229 232
186 177 174 175 176 177 179 181 183 184 188 182 184 177 174 183 182 187 185 190 193 197 222 214 230 226 232 214 226 236 246 244 215 241 273 272 252 227 171 199 209 214 230
188 183 180 178 180 180 175 176 181 184 183 184 189 188 189 189 185 189 177 184 193 203 211 215 218 235 237 227 233 233 247 250 240 209 237 274 314 284 229 187 189 205 222
191 186 185 183 180 178 175 172 175 181 184 189 188 196 197 187 179 179 168 190 184 203 210 210 215 224 233 232 250 250 254 246 254 247 229 230 233 249 266 261 239 218 218
190 184 179 177 177 175 176 173 174 179 184 188 187 195 192 188 183 185 178 190 183 194 202 213 221 222 228 223 233 242 237 249 254 261 257 246 242 236 247 254 256 255 242
183 180 178 176 176 176 178 176 176 180 183 186 186 185 188 189 190 198 184 201 190 192 197 220 226 225 221 225 231 233 244 238 238 246 254 257 259 264 257 257 266 266 254
177 180 182 180 181 179 179 177 177 180 182 184 180 180 184 191 186 195 207 194 205 205 208 222 222 226 224 226 228 233 226 226 232 239 248 255 255 257 248 254 261 262 254
177 179 182 183 182 180 181 178 177 179 180 180 176 177 179 182 174 175 199 199 201 206 204 221 219 217 219 227 227 234 232 224 228 232 228 239 241 248 250 248 254 265 267
179 177 179 178 178 178 175 175 176 177 177 176 175 171 174 175 176 182 184 193 199 201 199 205 208 210 213 212 222 221 215 221 230 240 245 250 252 255 250 252 256 259 262
184 182 176 173 172 172 171 172 173 172 172 172 168 167 169 169 174 183 186 190 195 192 201 211 205 201 202 203 208 223 214 218 226 232 235 247 263 263 250 247 252 252 251
177 175 169 169 173 174 170 169 172 172 170 169 167 167 168 164 173 178 182 185 188 196 204 211 208 204 203 206 208 223 224 226 232 233 239 246 244 249 261 258 255 258 257
164 167 168 171 174 170 169 168 172 171 168 169 171 168 172 168 174 178 180 182 187 198 208 214 216 214 213 213 217 223 233 236 238 239 243 250 248 249 252 254 257 255 249
142 151 161 168 169 170 169 167 164 163 166 168 165 160 166 169 175 182 183 185 191 202 209 215 222 221 224 222 223 229 237 242 243 242 244 248 245 248 253 243 249 261 267
137 141 146 154 161 164 169 166 158 158 159 161 163 164 166 169 173 180 182 184 193 202 207 214 221 225 221 224 236 241 240 245 251 243 238 239 226 266 266 267 254 250 258
152 145 143 149 156 164 169 164 161 160 163 165 167 166 170 172 173 178 185 188 193 199 201 212 215 212 224 69 360 275 251 244 247 253 244 225 198 196 200 233 258 269 257
162 153 147 146 155 165 169 173 170 165 166 170 171 170 175 179 179 182 184 185 189 196 205 209 204 189 118 93 235 267 261 249 244 249 246 247 207 224 227 206 214 220 223
159 153 145 136 132 153 161 160 164 166 168 169 171 172 176 178 175 178 181 181 183 193 198 196 192 189 131 108 254 264 239 245 242 241 240 246 245 250 278 250 229 229 218
144 142 141 130 131 143 148 150 155 161 166 164 168 170 171 170 173 176 178 179 182 187 192 184 197 191 150 144 206 274 235 228 238 239 239 248 243 171 282 258 243 235 230
133 129 136 129 124 126 137 148 150 151 164 171 172 167 168 169 170 169 172 173 183 182 189 173 206 210 192 149 176 260 250 238 244 229 226 224 267 171 234 249 244 240 247
132 130 135 131 120 127 137 143 142 144 146 156 167 164 169 173 164 156 160 173 182 174 191 184 204 209 204 153 163 247 272 280 270 258 245 161 135 182 228 254 255 262 272
135 133 134 129 126 135 141 132 115 98 111 129 145 154 166 177 151 154 162 175 180 180 187 193 212 197 183 155 153 185 257 302 284 288 305 65 113 217 235 243 240 260 263
144 143 145 137 136 143 145 131 109 95 96 121 137 143 156 160 156 168 172 178 189 201 195 203 212 201 185 150 155 182 211 253 271 311 26 52 207 223 211 194 212 234 247
155 156 155 151 145 150 150 128 123 131 138 144 152 156 167 167 159 189 188 185 193 209 218 227 228 206 184 169 167 183 189 202 224 256 148 181 210 232 224 192 210 233 248
161 165 167 161 151 153 151 146 144 150 159 157 162 167 170 162 166 179 191 208 184 276 264 264 253 238 207 121 89 240 229 252 279 274 243 229 216 218 210 216 231 248 246
161 163 164 160 154 154 150 156 166 168 181 183 183 187 181 168 184 179 162 86 49 117 161 294 300 78 84 119 143 162 119 154 248 252 240 244 265 276 286 273 246 242 262